#timestamp,LO_Frequency,Hit,StdDev 
1600348715.4,286046985.1,P
1600348735.2,286046982.9,P
1600348755.0,286046982.8,P
1600348755.9,286046982.8,Y
1600348775.8,286046998.4,P
1600348795.6,286046996.5,N
1600348815.4,286046999.1,N
1600348835.3,286046999.1,N
1600348855.1,286046996.6,N
1600348875.9,286046997.0,N
1600348895.7,286046997.0,N
1600348915.5,286046997.3,N
1600348935.4,286046997.6,N
1600348955.2,286046997.8,N
1600348975.0,286046997.3,N
1600348976.0,286046997.3,N
1600348995.8,286046997.4,N
1600349015.6,286046997.5,N
1600349035.5,286046995.3,N
1600349055.3,286046995.7,N
1600349075.1,286046995.8,N
1600349095.9,286046995.6,N
1600349115.7,286046995.5,N
1600349135.6,286046995.5,N
1600349155.4,286046995.6,N
1600349175.2,286046995.5,N
1600349195.1,286046995.8,N
1600349196.0,286046995.8,N
1600349215.8,286046995.9,N
1600349235.6,286046994.1,N
1600349255.5,286046993.8,N
1600349275.3,286046993.3,N
1600349295.2,286046993.8,N
1600349315.9,286046994.6,N
1600349335.7,286046994.5,Y
1600349355.6,286046996.5,P
1600349375.4,286046997.2,P
1600349395.2,286046997.4,P
1600349415.1,286046997.9,Y
1600349416.0,286046997.9,P
1600349435.8,286046999.8,N
1600349455.7,286047001.0,N
1600349475.5,286047000.5,N
1600349495.3,286047000.9,N
1600349515.2,286046998.1,N
1600349535.0,286046998.1,N
1600349535.9,286046998.1,N
1600349555.8,286046998.2,N
1600349575.6,286046998.8,N
1600349595.4,286046998.3,N
1600349615.3,286046998.9,N
1600349635.1,286046998.4,N
1600349655.9,286046998.6,N
1600349675.7,286046998.6,N
1600349695.5,286046999.3,N
1600349715.4,286046999.3,N
1600349735.2,286046996.6,Y
1600349755.0,286046998.3,P
1600349756.0,286046998.3,P
1600349775.8,286046999.0,P
1600349795.6,286046998.1,Y
1600349815.5,286047000.1,P
1600349835.3,286047000.7,N
1600349855.1,286047000.3,N
1600349875.9,286047001.2,N
1600349895.7,286046998.3,N
1600349915.6,286047001.2,N
1600349935.4,286047011.9,Y
1600349955.2,286046999.4,P
1600349975.1,286046999.5,N
1600349976.0,286046999.5,N
1600349995.8,286047001.1,Y
1600350015.7,286047000.0,P
1600350035.5,286047000.7,P
1600350055.3,286047001.0,N
1600350075.2,286047001.2,N
1600350095.0,286046998.5,N
1600350095.9,286046998.5,N
1600350115.8,286047001.2,N
1600350135.6,286046998.4,N
1600350155.4,286046998.4,N
1600350175.3,286046998.2,N
1600350195.1,286046998.9,N
1600350215.8,286046999.3,N
1600350235.7,286046998.1,N
1600350255.5,286046998.3,N
1600350275.3,286046998.8,N
1600350295.2,286046999.1,N
1600350315.0,286046998.3,N
1600350315.9,286046998.3,N
1600350335.8,286046998.4,N
1600350355.6,286046999.2,N
1600350375.4,286046999.1,N
1600350395.3,286046999.3,N
1600350415.1,286046998.7,N
1600350435.9,286046999.1,N
1600350455.7,286046996.9,Y
1600350475.5,286046999.2,P
1600350495.4,286046999.5,P
1600350515.2,286046996.9,P
1600350535.0,286046998.8,N
1600350535.9,286046998.8,N
1600350555.8,286046998.9,N
1600350575.6,286046998.4,N
1600350595.5,286046998.6,N
1600350615.3,286047000.7,N
1600350635.1,286047002.7,N
1600350655.9,286047002.3,N
1600350675.7,286047002.6,N
1600350695.5,286047000.8,N
1600350715.4,286047000.8,N
1600350735.2,286046998.3,N
1600350755.1,286046998.3,N
1600350756.0,286046998.3,N
1600350775.8,286046998.7,N
1600350795.6,286046998.3,N
1600350815.5,286046998.3,N
1600350835.3,286046999.6,N
1600350855.1,286046998.6,N
1600350875.9,286046999.5,N
1600350895.7,286046999.3,N
1600350915.6,286046999.3,N
1600350935.4,286046998.1,N
1600350955.2,286046998.4,N
1600350975.1,286046998.3,N
1600350976.0,286046998.3,N
1600350995.8,286046998.5,N
1600351015.6,286046999.2,N
1600351035.5,286046998.7,N
1600351055.3,286046997.0,N
1600351075.2,286046999.2,N
1600351095.9,286046996.6,N
1600351115.7,286046998.9,N
1600351135.6,286046999.1,N
1600351155.4,286046997.7,N
1600351175.2,286046997.2,N
1600351195.1,286046999.0,N
1600351196.0,286046999.0,N
